Satellite: CO-57
Catalog number: 27848
Epoch time:      09196.56838422
Element set:     570
Inclination:      098.7142 deg
RA of node:       204.3921 deg
Eccentricity:    0.0010765
Arg of perigee:   066.9535 deg
Mean anomaly:     293.2786 deg
Mean motion:   14.20447519 rev/day
Decay rate:        4.0e-08 rev/day^2
Epoch rev:           31325
Checksum:              325

Satellite: AO-51
Catalog number: 28375
Epoch time:      09196.57956979
Element set:    0438
Inclination:      098.0514 deg
RA of node:       204.5261 deg
Eccentricity:    0.0085250
Arg of perigee:   039.1664 deg
Mean anomaly:     321.5655 deg
Mean motion:   14.40646911 rev/day
Decay rate:       -4.0e-08 rev/day^2
Epoch rev:           26504
Checksum:              321

Satellite: CO-56
Catalog number: 28941
Epoch time:      09197.61192874
Element set:     260
Inclination:      098.1367 deg
RA of node:       017.6655 deg
Eccentricity:    0.0074803
Arg of perigee:   021.2197 deg
Mean anomaly:     339.2012 deg
Mean motion:   15.88489636 rev/day
Decay rate:     6.5982e-04 rev/day^2
Epoch rev:           19191
Checksum:              352

Satellite: GENESAT1
Catalog number: 29655
Epoch time:      09197.77349796
Element set:     758
Inclination:      040.0248 deg
RA of node:       357.8560 deg
Eccentricity:    0.0003440
Arg of perigee:   331.5629 deg
Mean anomaly:     028.4997 deg
Mean motion:   15.66172288 rev/day
Decay rate:     1.0275e-04 rev/day^2
Epoch rev:           14711
Checksum:              339

Satellite: CP3
Catalog number: 31129
Epoch time:      09197.66336730
Element set:      68
Inclination:      097.9890 deg
RA of node:       249.3305 deg
Eccentricity:    0.0101919
Arg of perigee:   193.2345 deg
Mean anomaly:     166.6172 deg
Mean motion:   14.52148527 rev/day
Decay rate:        9.3e-07 rev/day^2
Epoch rev:           11916
Checksum:              317

Satellite: CO-65
Catalog number: 32785
Epoch time:      09196.55955078
Element set:    0420
Inclination:      097.9440 deg
RA of node:       260.2912 deg
Eccentricity:    0.0014173
Arg of perigee:   302.8595 deg
Mean anomaly:     057.1266 deg
Mean motion:   14.81500483 rev/day
Decay rate:       3.31e-06 rev/day^2
Epoch rev:           06564
Checksum:              313

Satellite: KKS-1
Catalog number: 33493
Epoch time:      09197.69792341
Element set:     572
Inclination:      098.0591 deg
RA of node:       310.0398 deg
Eccentricity:    0.0020933
Arg of perigee:   143.2337 deg
Mean anomaly:     217.0324 deg
Mean motion:   14.80699615 rev/day
Decay rate:       2.34e-06 rev/day^2
Epoch rev:            2583
Checksum:              305

Satellite: SOHLA-1
Catalog number: 33496
Epoch time:      09197.87143369
Element set:     536
Inclination:      098.0399 deg
RA of node:       306.7198 deg
Eccentricity:    0.0006283
Arg of perigee:   177.8401 deg
Mean anomaly:     182.2823 deg
Mean motion:   14.69439792 rev/day
Decay rate:       -4.0e-08 rev/day^2
Epoch rev:            2563
Checksum:              339

/EX
SB KEPS @ AMSAT  $ORB09197.W
Orbital Elements  09197.WEATHER

HR AMSAT ORBITAL ELEMENTS FOR WEATHER SATELLITES
FROM WA5QGD FORT WORTH,TX July 16, 2009
Send Subscribe/unsubscribe to KEPS at 
http://www.amsat.org/mailman/listinfo/keps
BID: ORB09197.W
TO ALL RADIO AMATEURS BT

Satellite: NOAA-10
Catalog number: 16969
Epoch time:      09197.10755942
Element set:     686
Inclination:      098.6895 deg
RA of node:       223.5960 deg
Eccentricity:    0.0013050
Arg of perigee:   110.6417 deg
Mean anomaly:     249.6189 deg
Mean motion:   14.27390392 rev/day
Decay rate:       -2.0e-08 rev/day^2
Epoch rev:           18763
Checksum:              331

Satellite: NOAA-11
Catalog number: 19531
Epoch time:      09197.27166061
Element set:     706
Inclination:      098.7834 deg
RA of node:       286.7767 deg
Eccentricity:    0.0012093
Arg of perigee:   029.1127 deg
Mean anomaly:     331.0693 deg
Mean motion:   14.14898348 rev/day
Decay rate:      -1.91e-06 rev/day^2
Epoch rev:            7363
Checksum:              324

Satellite: NOAA-12
Catalog number: 21263
Epoch time:      09197.58564359
Element set:     191
Inclination:      098.7709 deg
RA of node:       205.6581 deg
Eccentricity:    0.0013564
Arg of perigee:   062.4110 deg
Mean anomaly:     297.8444 deg
Mean motion:   14.25585215 rev/day
Decay rate:        1.0e-08 rev/day^2
Epoch rev:           94458
Checksum:              318

Satellite: MET-3/5
Catalog number: 21655
Epoch time:      09196.94157113
Element set:    0641
Inclination:      082.5518 deg
RA of node:       186.1810 deg
Eccentricity:    0.0014645
Arg of perigee:   105.0684 deg
Mean anomaly:     255.2061 deg
Mean motion:   13.17019590 rev/day
Decay rate:        5.1e-07 rev/day^2
Epoch rev:           86141
Checksum:              286

Satellite: MET-2/21
Catalog number: 22782
Epoch time:      09196.81550733
Element set:    0512
Inclination:      082.5489 deg
RA of node:       159.3006 deg
Eccentricity:    0.0020684
Arg of perigee:   266.8064 deg
Mean anomaly:     093.0727 deg
Mean motion:   13.83636369 rev/day
Decay rate:        3.8e-07 rev/day^2
Epoch rev:           80156
Checksum:              321

